Date String (YYYY-MM-DD hh:mm:ss) UTC,Instrument flags,absolute air pressure of the measurement (hPa),sample flow rate (lpm),inlet stack bypass flow (lpm),air temperature of the measurement (°C),ambient temperature measured by the external sensor (°C),aerosol sample conditioner tube jacket temperature (°C),OPC LED temperature (°C),internal box temperature (°C),relative humidity of the measurement (%),span deviation,mass concentration of particles derived from Lorenz-Mie calculation of OPC scattering (μg/m³),mass concentration of particles derived from Lorenz-Mie calculation of OPC scattering (μg/m³),mass concentration of particles derived from Lorenz-Mie calculation of OPC scattering (μg/m³)
DateTimeUTC,F1_M11,P_M11,Q1_M11,Q2_M11,T1_M11,T2_M11,T3_M11,T4_M11,T5_M11,U1_M11,ZSPAN_M11,X0_M11,X2_M11,X1_M11
2023-11-23 16:00:00,SystemResetWarning,0832.0,5.00,000.00,023.8,022.9,000.0,032.0,025.1,12.9,0000.0,0010.18,0003.43,0002.25
2023-11-23 16:01:00,SystemResetWarning,0832.0,5.01,000.00,023.8,022.9,000.0,032.1,025.1,12.9,0000.0,0010.00,0003.45,0002.26
2023-11-23 16:02:00,SystemResetWarning,0832.0,5.01,000.00,023.8,022.9,000.0,032.1,025.0,12.9,0000.0,0009.97,0003.45,0002.26
2023-11-23 16:03:00,SystemResetWarning,0832.1,4.98,000.00,023.8,022.9,000.0,032.1,025.0,12.9,0000.0,0010.52,0003.46,0002.24
2023-11-23 16:04:00,SystemResetWarning,0832.0,4.99,000.00,023.8,022.9,000.0,032.1,025.0,12.9,0000.0,0009.92,0003.43,0002.22
2023-11-23 16:05:00,SystemResetWarning,0832.1,4.99,000.00,023.8,022.9,000.0,032.1,025.1,13.0,0000.0,0009.97,0003.41,0002.20
2023-11-23 16:06:00,SystemResetWarning,0832.0,5.00,000.00,023.8,022.8,000.0,032.1,025.0,13.1,0000.0,0010.08,0003.40,0002.20
2023-11-23 16:07:00,SystemResetWarning,0832.0,5.00,000.00,023.8,022.8,000.0,032.1,025.0,13.2,0000.0,0009.69,0003.41,0002.22
2023-11-23 16:08:00,SystemResetWarning,0832.1,5.00,000.00,023.8,022.8,000.0,032.1,025.0,13.1,0000.0,0008.96,0003.43,0002.21
2023-11-23 16:09:00,SystemResetWarning,0832.1,5.00,000.00,023.8,022.8,000.0,032.1,025.0,13.2,0000.0,0009.26,0003.43,0002.20
2023-11-23 16:10:00,SystemResetWarning,0832.1,5.00,000.00,023.8,022.8,000.0,032.1,025.0,13.2,0000.0,0009.41,0003.46,0002.19
2023-11-23 16:11:00,SystemResetWarning,0832.2,5.00,000.00,023.8,022.8,000.0,032.1,025.0,13.1,0000.0,0009.37,0003.46,0002.16
2023-11-23 16:12:00,SystemResetWarning,0832.2,5.00,000.00,023.8,022.8,000.0,032.1,025.0,13.2,0000.0,0009.55,0003.46,0002.14
2023-11-23 16:13:00,SystemResetWarning,0832.2,5.00,000.00,023.8,022.8,000.0,032.1,025.0,13.2,0000.0,0009.79,0003.47,0002.13
2023-11-23 16:14:00,SystemResetWarning,0832.2,5.00,000.00,023.8,022.8,000.0,032.1,025.0,13.2,0000.0,0009.59,0003.46,0002.14
2023-11-23 16:15:00,SystemResetWarning,0832.2,5.00,000.00,023.8,022.8,000.0,032.1,025.0,13.2,0000.0,0009.79,0003.50,0002.13
2023-11-23 16:16:00,SystemResetWarning,0832.2,5.00,000.00,023.8,022.8,000.0,032.1,025.0,13.2,0000.0,0010.24,0003.52,0002.14
2023-11-23 16:17:00,SystemResetWarning,0832.2,5.00,000.00,023.8,022.8,000.0,032.1,025.0,13.2,0000.0,0010.33,0003.53,0002.14
2023-11-23 16:18:00,SystemResetWarning,0832.2,4.99,000.00,023.8,022.9,000.0,032.1,025.0,13.2,0000.0,0010.08,0003.50,0002.11
2023-11-23 16:19:00,SystemResetWarning,0832.2,5.00,000.00,023.8,022.9,000.0,032.1,025.1,13.2,0000.0,0009.99,0003.42,0002.10
2023-11-23 16:20:00,SystemResetWarning,0832.2,5.00,000.00,023.8,022.9,000.0,032.1,025.1,13.2,0000.0,0009.72,0003.38,0002.10
2023-11-23 16:21:00,SystemResetWarning,0832.2,5.00,000.00,023.8,022.9,000.0,032.1,025.0,13.2,0000.0,0009.70,0003.31,0002.10
2023-11-23 16:22:00,SystemResetWarning,0832.2,5.00,000.00,023.8,022.9,000.0,032.1,025.0,13.2,0000.0,0009.99,0003.26,0002.09
2023-11-23 16:23:00,SystemResetWarning,0832.2,5.00,000.00,023.8,022.9,000.0,032.1,025.1,13.3,0000.0,0010.00,0003.28,0002.09
2023-11-23 16:24:00,SystemResetWarning,0832.2,5.01,000.00,023.8,022.9,000.0,032.1,025.1,13.3,0000.0,0009.93,0003.24,0002.08
2023-11-23 16:25:00,SystemResetWarning,0832.2,5.01,000.00,023.8,022.9,000.0,032.1,025.1,13.2,0000.0,0009.58,0003.22,0002.07
2023-11-23 16:26:00,SystemResetWarning,0832.2,5.01,000.00,023.8,022.9,000.0,032.1,025.1,13.2,0000.0,0009.72,0003.19,0002.07
2023-11-23 16:27:00,SystemResetWarning,0832.2,4.99,000.00,023.8,022.9,000.0,032.1,025.1,13.2,0000.0,0009.58,0003.22,0002.08
2023-11-23 16:28:00,SystemResetWarning,0832.3,4.99,000.00,023.8,022.9,000.0,032.1,025.1,13.2,0000.0,0009.16,0003.24,0002.08
2023-11-23 16:29:00,SystemResetWarning,0832.3,5.00,000.00,023.8,022.9,000.0,032.1,025.1,13.2,0000.0,0010.16,0003.26,0002.09
2023-11-23 16:30:00,SystemResetWarning,0832.2,5.00,000.00,023.8,022.9,000.0,032.1,025.1,13.3,0000.0,0010.62,0003.29,0002.10
2023-11-23 16:31:00,SystemResetWarning,0832.2,5.00,000.00,023.8,022.9,000.0,032.1,025.1,13.3,0000.0,0010.89,0003.32,0002.08
2023-11-23 16:32:00,SystemResetWarning,0832.2,5.00,000.00,023.8,022.9,000.0,032.1,025.1,13.3,0000.0,0011.24,0003.33,0002.06
2023-11-23 16:33:00,SystemResetWarning,0832.2,5.00,000.00,023.8,022.9,000.0,032.1,025.1,13.3,0000.0,0010.71,0003.32,0002.07
2023-11-23 16:34:00,SystemResetWarning,0832.2,5.00,000.00,023.8,022.9,000.0,032.1,025.1,13.3,0000.0,0010.66,0003.29,0002.06
2023-11-23 16:35:00,SystemResetWarning,0832.2,5.00,000.00,023.8,022.9,000.0,032.1,025.0,13.2,0000.0,0010.52,0003.26,0002.04
2023-11-23 16:36:00,SystemResetWarning,0832.2,5.00,000.00,023.8,022.9,000.0,032.1,025.0,13.2,0000.0,0010.83,0003.27,0002.05
2023-11-23 16:37:00,SystemResetWarning,0832.1,4.99,000.00,023.8,022.9,000.0,032.1,025.0,13.2,0000.0,0010.84,0003.32,0002.04
2023-11-23 16:38:00,SystemResetWarning,0832.1,5.00,000.00,023.8,022.9,000.0,032.1,025.0,13.2,0000.0,0010.67,0003.29,0002.04
2023-11-23 16:39:00,SystemResetWarning,0832.0,5.00,000.00,023.8,022.8,000.0,032.1,025.1,13.2,0000.0,0010.59,0003.28,0002.04
2023-11-23 16:40:00,SystemResetWarning,0832.0,5.00,000.00,023.8,022.8,000.0,032.1,025.0,13.1,0000.0,0009.89,0003.28,0002.05
2023-11-23 16:41:00,SystemResetWarning,0832.0,5.00,000.00,023.8,022.8,000.0,032.1,025.0,13.1,0000.0,0008.82,0003.25,0002.04
2023-11-23 16:42:00,SystemResetWarning,0832.0,5.00,000.00,023.8,022.8,000.0,032.1,025.0,13.2,0000.0,0008.74,0003.23,0002.04
2023-11-23 16:43:00,SystemResetWarning,0832.0,5.00,000.00,023.8,022.8,000.0,032.1,025.0,13.2,0000.0,0008.26,0003.24,0002.07
2023-11-23 16:44:00,SystemResetWarning,0832.0,5.00,000.00,023.8,022.8,000.0,032.1,025.0,13.2,0000.0,0008.58,0003.25,0002.08
2023-11-23 16:45:00,SystemResetWarning,0832.0,5.00,000.00,023.8,022.8,000.0,032.1,025.0,13.2,0000.0,0009.13,0003.29,0002.12
2023-11-23 16:46:00,SystemResetWarning,0832.1,5.01,000.00,023.8,022.8,000.0,032.1,025.0,13.3,0000.0,0008.92,0003.33,0002.18
2023-11-23 16:47:00,SystemResetWarning,0832.1,5.00,000.00,023.8,022.8,000.0,032.1,025.0,13.2,0000.0,0008.59,0003.33,0002.20
2023-11-23 16:48:00,SystemResetWarning,0832.1,5.00,000.00,023.8,022.8,000.0,032.1,025.0,13.2,0000.0,0008.27,0003.29,0002.23
2023-11-23 16:49:00,SystemResetWarning,0832.1,5.00,000.00,023.8,022.8,000.0,032.1,025.0,13.2,0000.0,0008.07,0003.28,0002.26
2023-11-23 16:50:00,SystemResetWarning,0832.2,4.99,000.00,023.8,022.8,000.0,032.1,025.0,13.3,0000.0,0008.09,0003.32,0002.28
2023-11-23 16:51:00,SystemResetWarning,0832.2,4.99,000.00,023.7,022.8,000.0,032.1,025.0,13.2,0000.0,0008.29,0003.35,0002.30
2023-11-23 16:52:00,SystemResetWarning,0832.2,5.00,000.00,023.7,022.7,000.0,032.1,025.0,13.2,0000.0,0008.50,0003.38,0002.32
2023-11-23 16:53:00,SystemResetWarning,0832.2,5.00,000.00,023.7,022.7,000.0,032.1,024.9,13.4,0000.0,0008.46,0003.42,0002.37
2023-11-23 16:54:00,SystemResetWarning,0832.2,5.00,000.00,023.7,022.7,000.0,032.1,024.9,13.4,0000.0,0008.31,0003.43,0002.41
2023-11-23 16:55:00,SystemResetWarning,0832.2,5.00,000.00,023.7,022.7,000.0,032.0,025.0,13.4,0000.0,0008.11,0003.45,0002.43
2023-11-23 16:56:00,SystemResetWarning,0832.2,5.00,000.00,023.7,022.7,000.0,032.0,024.9,13.4,0000.0,0007.61,0003.45,0002.44
2023-11-23 16:57:00,SystemResetWarning,0832.2,5.00,000.00,023.7,022.7,000.0,032.0,024.9,13.5,0000.0,0007.56,0003.42,0002.40
2023-11-23 16:58:00,SystemResetWarning,0832.3,5.00,000.00,023.7,022.7,000.0,032.0,024.9,13.5,0000.0,0007.61,0003.43,0002.40
2023-11-23 16:59:00,SystemResetWarning,0832.3,4.99,000.00,023.7,022.7,000.0,032.0,024.9,13.5,0000.0,0007.63,0003.45,0002.39
